Regional Weather Roundup
Issued by NWS

Home | Current Version | Previous Version | Graphics & Text | Print | Product List | Glossary On
Versions: 1 2 3 4 5 6 7 8 9 10 11 12 13 14 15 16 17 18 19 20 21 22 23 24 25 26 27 28 29 30 31 32 33 34 35 36 37 38 39 40 41 42 43 44 45 46 47 48 49 50
846
ASUS43 KLOT 241108
RWRIL

ILLINOIS REGIONAL WEATHER ROUNDUP
NATIONAL WEATHER SERVICE CHICAGO/ROMEOVILLE IL
500 AM CST SAT FEB 24 2018

NOTE: "FAIR" INDICATES FEW OR NO CLOUDS BELOW 12,000 FEET WITH NO
SIGNIFICANT WEATHER AND/OR OBSTRUCTIONS TO VISIBILITY.

* THESE STATIONS ARE NOT UNDER NWS QUALITY CONTROL. THEY ALSO MAY NOT
  REPORT WEATHER SUCH AS PRECIPITATION OR FOG.

ILZ001-002-007-009-015-016-024-241200-
NORTHWEST ILLINOIS

CITY           SKY/WX    TMP DP  RH WIND       PRES   REMARKS
MOLINE         CLOUDY    31  26  82 NE9       30.15S WCI  23
STERLING*      CLOUDY    31  28  89 MISG        N/A
SAVANNA*       CLOUDY    30  26  88 E10       30.18S WCI  21
$$

ILZ003-004-008-010-011-017-018-241200-
NORTH CENTRAL ILLINOIS

CITY           SKY/WX    TMP DP  RH WIND       PRES   REMARKS
ROCKFORD       MOCLDY    29  24  82 NE10      30.20F WCI  20
FREEPORT*      FAIR      28  25  89 E14       30.20S WCI  16
ROCHELLE*      CLOUDY    31  28  91 NE14      30.18S WCI  20
DE KALB*       CLOUDY    31  28  91 NE12      30.18F WCI  21
PERU*          CLOUDY    32  28  88 NE15      30.15F WCI  21
$$

ILZ005-006-012>014-019>023-241200-
NORTHEAST ILLINOIS

CITY           SKY/WX    TMP DP  RH WIND       PRES   REMARKS
CHICAGO-OHARE  CLOUDY    34  29  82 NE13      30.19F WCI  25
CHICAGO-MIDWAY CLOUDY    36  32  85 E13       30.19F WCI  27
AURORA         CLOUDY    32  29  88 NE10      30.18F WCI  24
LANSING*       CLOUDY    34  33  95 NE8       30.19F WCI  27
JOLIET*        CLOUDY    35  32  90 NE6       30.19S WCI  29
WAUKEGAN       MOCLDY    32  28  85 NE10      30.21F WCI  24
DUPAGE AIRPORT CLOUDY    31  29  92 NE9       30.17F FOG     WCI  23
KANKAKEE*      CLOUDY    36  32  88 NE9       30.17F WCI  29
WHEELING       CLOUDY    34  30  85 NE7       30.21F WCI  28
MORRIS*        CLOUDY    33  30  90 NE5       30.17F WCI  28
ROMEOVILLE*    CLOUDY    33  31  92 E8        30.18F WCI  26
NORTHERLY ISL    N/A     34  31  89 NE16        N/A  WCI  24
$$

LMZ740>746-241200-
SOUTHERN LAKE MICHIGAN

STATION/POSITION SKY/WX   TEMP    WIND        PRES    VSBY  WAVE
                          AIR SEA DIR/SP/G                  HT/PER
                          (F)     (DEG/KT/KT) (MB)    (MI)  (FT/S)
HARRISON CRIB              35      50/ 15/ 16   N/A
BURNHAM HARBOR             34      50/ 15       N/A
CALUMET HARBOR             34      30/ 13/ 19 1022.0F
BURNS HARBOR               34      50/ 13/ 15 1023.0F
MICHIGAN CITY              33      30/ 14/ 15   N/A
$$

ILZ025>027-034>036-040-047-049-050-058-095>099-241200-
WEST-CENTRAL ILLINOIS

CITY           SKY/WX    TMP DP  RH WIND       PRES   REMARKS
QUINCY         LGT RAIN  33  32  96 NE9       30.09R FOG     WCI  25
GALESBURG*     MIX PCPN  32  30  93 NE12      30.13F WCI  23
MACOMB*        CLOUDY   N/A N/A N/A NE13      30.12F HAZE
JACKSONVILLE*  RAIN      35  34  96 E13       30.09S WCI  26
PITTSFIELD*    DRIZZLE   36  35  99 NE9       30.09S WCI  29
$$

ILZ028>032-037-038-041>044-048-051>054-059>061-241200-
CENTRAL ILLINOIS

CITY           SKY/WX    TMP DP  RH WIND       PRES   REMARKS
PONTIAC        CLOUDY    34  34  99 E12       30.15F FOG     WCI  26
BLOOMINGTON    LGT RAIN  34  33  96 E14       30.12F FOG     WCI  25
DECATUR        CLOUDY    37  37 100 E17       30.11S WCI  27
PEORIA         CLOUDY    34  29  82 NE13      30.12F WCI  25
LACON*         CLOUDY    32  30  90 NE8       30.13F WCI  25
LINCOLN*       CLOUDY    37  36  97 E12       30.11F FOG     WCI  29
SPRINGFIELD    LGT RAIN  38  35  89 E13       30.10F WCI  30
TAYLORVILLE    RAIN      37  36  98 E12       30.10F WCI  29
$$

ILZ033-039-045-046-055>057-062-063-241200-
EAST-CENTRAL ILLINOIS

CITY           SKY/WX    TMP DP  RH WIND       PRES   REMARKS
CHAMPAIGN      LGT RAIN  37  36  96 E14       30.12S FOG     WCI  28
DANVILLE*      RAIN      36  35  96 E7        30.13R WCI  31
RANTOUL*       LGT RAIN  38  37  98 E12       30.14S WCI  30
MATTOON        RAIN      38  38 100 E9        30.09F WCI  31
PARIS*         LGT RAIN  38  38 100 NE7       30.14F WCI  33
$$

ILZ079-100>102-241200-
SOUTHWEST ILLINOIS

CITY           SKY/WX    TMP DP  RH WIND       PRES   REMARKS
ALTON          MIX PCPN  38  38 100 E13       30.05F WCI  30
BELLEVILLE     HVY RAIN  42  40  94 NE7       30.06S
CAHOKIA*       RAIN      41  39  93 E8        30.06F FOG
SPARTA*        RAIN      43  43 100 E12       30.06F
$$

ILZ064>066-069>071-074>076-080>082-084>086-088>090-092>094-241200-
SOUTH-CENTRAL ILLINOIS

CITY           SKY/WX    TMP DP  RH WIND       PRES   REMARKS
CARBONDALE     LGT RAIN  46  46 100 E8        30.04F
CAIRO*         LGT RAIN  48  48 100 NE9       30.02F
EFFINGHAM*     HVY RAIN  40  40 100 E14       30.08F
MARION         LGT RAIN  46  46  99 NE10      30.05F
MT. VERNON     RAIN      43  42  97 NE9       30.09F FOG
CENTRALIA*     RAIN      43  43  99 E12G21    30.05F
SALEM*         HVY RAIN  43  41  93 E8        30.05F
METROPOLIS*    RAIN      49  48  97 NE7       30.04F
$$

ILZ067-068-072-073-078-083-087-091-241200-
SOUTHEAST ILLINOIS

CITY           SKY/WX    TMP DP  RH WIND       PRES   REMARKS
LAWRENCEVILLE  LGT RAIN  45  44  97 NE10      30.11F FOG
FLORA*         RAIN      43  42  97 NE7       30.10F
FAIRFIELD*     RAIN      44  44 100 MISG      30.09F
HARRISBURG*    RAIN      47  47 100 NE8       30.07F
ROBINSON*      RAIN      42  42 100 NE6       30.13S
CARMI*         RAIN      46  46  99 N5        30.10R
$$

ABBREVIATIONS USED IN REMARKS
   TC - TEMPERATURE IN CELSIUS
  WCI - WIND CHILL INDEX
   HX - HEAT INDEX
  VSB - VISIBILITY
$$





USA.gov is the U.S. government's official web portal to all federal, state and local government web resources and services.